Location: Newark
(50.4348°N, 30.5552°E)
Time: 23:49:26
(UTC+00:00)

Vanguard 3 - Pass Details

Date: 25 January 2020
Orbit: 508 x 3263 km, 33.3° (Epoch: 25 February)

Event Time Altitude Azimuth Distance (km) Brightness Sun altitude
Rises 20:28:02 0° 270° (W) 6,957 12.3 -52.6°
Reaches altitude 10° 20:34:18 10° 260° (W) 5,597 11.6 -53.2°
Enters shadow 20:41:03 21° 239° (WSW) 4,264 10.7 -53.9°
